TimeCST,TemperatureF,Dew PointF,Humidity,Sea Level PressureIn,VisibilityMPH,Wind Direction,Wind SpeedMPH,Gust SpeedMPH,PrecipitationIn,Events,Conditions,WindDirDegrees,DateUTC
12:00 AM,68,66,90,30.05,12,Calm,Calm,,,,Clear,,2012-11-09 06:00:00
3:00 AM,66,64,91,30.04,12,West,2.3,,,,Scattered Clouds,260,2012-11-09 09:00:00
6:00 AM,65,63,92,30.07,12,NW,5.8,,,,Scattered Clouds,310,2012-11-09 12:00:00
7:00 AM,66.2,64.4,94,30.06,6.2,NW,4.6,-,N/A,,Partly Cloudy,310,2012-11-09 13:00:00
8:00 AM,69.8,64.4,83,30.09,6.2,NW,4.6,-,N/A,,Partly Cloudy,320,2012-11-09 14:00:00
9:00 AM,76,65,62,30.11,16,NNW,8.1,,,,Scattered Clouds,340,2012-11-09 15:00:00
9:00 AM,75.2,66.2,73,30.11,6.2,NNW,8.1,-,N/A,,Partly Cloudy,340,2012-11-09 15:00:00
10:00 AM,80.6,66.2,61,30.10,6.2,North,8.1,-,N/A,,Partly Cloudy,350,2012-11-09 16:00:00
11:00 AM,82.4,66.2,58,30.08,6.2,North,6.9,-,N/A,,Scattered Clouds,350,2012-11-09 17:00:00
12:00 PM,82,66,49,30.06,12,NE,9.2,,,,Mostly Cloudy,50,2012-11-09 18:00:00
12:00 PM,82.4,66.2,58,30.05,6.2,NE,9.2,-,N/A,,Mostly Cloudy,50,2012-11-09 18:00:00
1:00 PM,82.4,66.2,58,30.01,6.2,NNE,9.2,-,N/A,,Mostly Cloudy,30,2012-11-09 19:00:00
2:00 PM,82.4,66.2,58,29.99,6.2,NE,10.4,-,N/A,,Mostly Cloudy,50,2012-11-09 20:00:00
3:00 PM,82,65,46,29.99,12,NE,11.5,,,,Partly Cloudy,50,2012-11-09 21:00:00
3:00 PM,82.4,64.4,54,29.98,6.2,NE,11.5,-,N/A,,Scattered Clouds,50,2012-11-09 21:00:00
4:00 PM,82.4,64.4,54,29.98,6.2,NE,9.2,-,N/A,,Scattered Clouds,40,2012-11-09 22:00:00
5:00 PM,80.6,64.4,58,29.99,6.2,NE,6.9,-,N/A,,Partly Cloudy,50,2012-11-09 23:00:00
6:00 PM,78,65,56,30.01,12,NE,4.6,,,,Scattered Clouds,40,2012-11-10 00:00:00
6:00 PM,78.8,64.4,61,30.00,6.2,NE,4.6,-,N/A,,Partly Cloudy,40,2012-11-10 00:00:00
9:00 PM,72,67,80,30.05,12,Calm,Calm,,,,Scattered Clouds,,2012-11-10 03:00:00